Location: Wiesbaden
(50.0830°N, 8.2500°E)
Time: 20:09:12
(UTC+02:00)

ISS - Pass Details

Date: 17 July 2019
Orbit: 409 x 418 km, 51.6° (Epoch: 20 July)

Event Time Altitude Azimuth Distance (km) Brightness Sun altitude
Rises 02:17:13 0° 277° (W) 2,349 0.0 -18.0°
Reaches altitude 10° 02:19:19 10° 281° (W) 1,485 -1.0 -17.9°
Maximum altitude 02:22:38 65° 4° (N) 456 -3.4 -17.8°
Drops below altitude 10° 02:25:56 10° 88° (E) 1,480 -0.8 -17.7°
Sets 02:28:02 0° 91° (E) 2,340 0.2 -17.6°
